User: anonymous   Login
Location: Unspecified
(0.0000°N, 0.0000°E)
Time: 21:19:07
(UTC+00:00)
Language:

BIROS - Orbit

View from above orbital plane
View from above orbital plane
View from above satellite
View from above satellite

Ground track
Ground track

The orbit data is extracted from the following two-line orbital elements,

1 41604U 16040F   17141.73942361 +.00000847 +00000-0 +41746-4 0  9990
2 41604 097.4639 204.3741 0013110 154.8712 205.3164 15.20626081050669
Epoch (UTC): 21 May 2017 17:44:46
Eccentricity: 0.0013110
inclination: 97.4639°
perigee height: 495 km
apogee height: 513 km
right ascension of ascending node: 204.3741°
argument of perigee: 154.8712°
revolutions per day: 15.20626081
mean anomaly at epoch: 205.3164°
orbit number at epoch: 5066

The dashed part of the orbit path shows where the satellite is in the earth's shadow,  

DLR